Change the Weather History Date:

Friday, December 7, 2012

  Actual Average Record
Temperature  
Mean Temperature 32 °F -  
Max Temperature 47 °F 40 °F 62 °F (2003)
Min Temperature 17 °F 15 °F -15 °F (1972)
Degree Days  
Heating Degree Days 32    
Moisture  
Dew Point 20 °F    
Average Humidity 62    
Maximum Humidity 86    
Minimum Humidity 37    
Precipitation  
Precipitation 0.00 in - - ()
Sea Level Pressure  
Sea Level Pressure 29.89 in    
Wind  
Wind Speed 7 mph (WNW)    
Max Wind Speed 22 mph    
Max Gust Speed 30 mph    
Visibility 10 miles    
Events      
Averages and records for this station are not official NWS values.
T = Trace of Precipitation, MM = Missing Value Source: NWS Daily Summary

Daily Weather History Graph

Daily Weather History Graph

Search for Another Location

Airport or City:

Trip Planner

Search our weather history database for the weather conditions in past years. The results will help you decide how hot, cold, wet, or windy it might be!

Date:

Astronomy

Dec. 07, 2012 Rise Set
Actual Time 6:59 AM MST 4:18 PM MST
Civil Twilight 6:28 AM MST 4:49 PM MST
Nautical Twilight 5:53 AM MST 5:23 PM MST
Astronomical Twilight 5:20 AM MST 5:57 PM MST
Moon 12:17 AM MST (12/7) 12:19 PM MST (12/7)
Length of Visible Light 10h 20m
Length of Day
9h 19m
Last Quarter, 38% of the Moon is Illuminated
Dec 7
Last Quarter
Dec 13
New
Dec 19
First Quarter
Dec 28
Full
Jan 4
Last Quarter

Hourly Weather History & Observations

Time (MST) Temp. Windchill Dew Point Humidity Pressure Visibility Wind Dir Wind Speed Gust Speed Precip Events Conditions
12:15 AM 28.4 °F - 20.8 °F 73% 29.93 in 10.0 mi Calm Calm - N/A   Clear
12:35 AM 26.6 °F 20.0 °F 20.3 °F 77% 29.91 in 10.0 mi South 5.8 mph - N/A   Clear
12:55 AM 27.3 °F 18.4 °F 20.8 °F 77% 29.91 in 10.0 mi South 9.2 mph - N/A   Clear
1:15 AM 27.5 °F 18.6 °F 21.2 °F 77% 29.90 in 10.0 mi South 9.2 mph - N/A   Clear
1:35 AM 27.3 °F 20.9 °F 21.0 °F 77% 29.91 in 10.0 mi South 5.8 mph - N/A   Clear
1:55 AM 25.7 °F 20.1 °F 20.1 °F 79% 29.90 in 10.0 mi South 4.6 mph - N/A   Clear
2:15 AM 24.6 °F 20.3 °F 19.4 °F 81% 29.90 in 10.0 mi South 3.5 mph - N/A   Clear
2:35 AM 25.3 °F - 19.8 °F 79% 29.89 in 10.0 mi Calm Calm - N/A   Clear
2:55 AM 25.2 °F - 19.6 °F 79% 29.87 in 10.0 mi Calm Calm - N/A   Clear
3:15 AM 24.6 °F - 19.6 °F 81% 29.87 in 10.0 mi Calm Calm - N/A   Clear
3:35 AM 22.8 °F - 16.9 °F 78% 29.86 in 10.0 mi Calm Calm - N/A   Clear
3:55 AM 26.6 °F - 20.3 °F 77% 29.86 in 10.0 mi Calm Calm - N/A   Clear
4:15 AM 27.1 °F - 19.4 °F 73% 29.85 in 10.0 mi Calm Calm - N/A   Clear
4:35 AM 26.4 °F - 18.9 °F 73% 29.85 in 10.0 mi Calm Calm - N/A   Clear
4:55 AM 25.5 °F - 18.0 °F 73% 29.84 in 10.0 mi Calm Calm - N/A   Mostly Cloudy
5:15 AM 25.7 °F 21.5 °F 17.8 °F 72% 29.84 in 10.0 mi WSW 3.5 mph - N/A   Scattered Clouds
5:35 AM 30.2 °F 21.3 °F 17.6 °F 60% 29.83 in 10.0 mi SSW 10.4 mph 20.7 mph N/A   Clear
5:55 AM 29.1 °F 20.6 °F 18.0 °F 63% 29.84 in 10.0 mi West 9.2 mph - N/A   Clear
6:15 AM 29.1 °F 20.0 °F 17.4 °F 62% 29.84 in 10.0 mi SW 10.4 mph - N/A   Clear
6:35 AM 29.1 °F 22.1 °F 16.9 °F 60% 29.83 in 10.0 mi WSW 6.9 mph - N/A   Scattered Clouds
6:55 AM 29.1 °F 21.3 °F 17.4 °F 62% 29.84 in 10.0 mi WSW 8.1 mph - N/A   Scattered Clouds
7:15 AM 30.0 °F 23.2 °F 17.2 °F 59% 29.83 in 10.0 mi SW 6.9 mph - N/A   Clear
7:35 AM 31.1 °F - 17.2 °F 57% 29.84 in 10.0 mi Calm Calm - N/A   Clear
7:55 AM 32.5 °F 25.5 °F 17.4 °F 54% 29.84 in 10.0 mi WSW 8.1 mph - N/A   Clear
8:15 AM 32.9 °F 25.9 °F 18.0 °F 54% 29.85 in 10.0 mi WSW 8.1 mph - N/A   Clear
8:35 AM 34.2 °F 28.2 °F 17.6 °F 51% 29.85 in 10.0 mi WSW 6.9 mph - N/A   Clear
8:55 AM 34.7 °F 30.6 °F 17.1 °F 49% 29.86 in 10.0 mi WSW 4.6 mph - N/A   Clear
9:15 AM 35.1 °F 27.4 °F 17.4 °F 49% 29.86 in 10.0 mi West 10.4 mph - N/A   Clear
9:35 AM 36.0 °F 29.6 °F 18.0 °F 48% 29.88 in 10.0 mi West 8.1 mph - N/A   Clear
9:55 AM 40.1 °F 30.7 °F 20.7 °F 46% 29.88 in 10.0 mi NNW 19.6 mph 26.5 mph N/A   Clear
10:15 AM 40.3 °F 30.4 °F 20.8 °F 46% 29.87 in 10.0 mi NNW 21.9 mph 29.9 mph N/A   Clear
10:35 AM 41.2 °F 31.6 °F 23.9 °F 50% 29.88 in 10.0 mi North 21.9 mph 29.9 mph N/A   Clear
10:55 AM 42.4 °F 34.1 °F 24.4 °F 49% 29.88 in 10.0 mi NNW 18.4 mph 26.5 mph N/A   Clear
11:15 AM 43.0 °F 34.0 °F 23.9 °F 47% 29.88 in 10.0 mi NNW 21.9 mph 25.3 mph N/A   Clear
11:35 AM 44.2 °F 36.7 °F 23.5 °F 44% 29.88 in 10.0 mi NW 17.3 mph 25.3 mph N/A   Clear
11:55 AM 44.6 °F 38.1 °F 23.4 °F 43% 29.86 in 10.0 mi NW 13.8 mph - N/A   Clear
12:15 PM 45.7 °F 39.5 °F 22.8 °F 41% 29.86 in 10.0 mi NNW 13.8 mph 20.7 mph N/A   Clear
12:35 PM 45.7 °F 38.3 °F 21.6 °F 38% 29.86 in 10.0 mi NNW 18.4 mph 25.3 mph N/A   Clear
12:55 PM 46.6 °F - 21.6 °F 37% 29.86 in 10.0 mi NW 15.0 mph 19.6 mph N/A   Clear
1:15 PM 47.1 °F - 21.9 °F 37% 29.85 in 10.0 mi NNW 12.7 mph 19.6 mph N/A   Clear
1:35 PM 46.8 °F - 22.8 °F 39% 29.86 in 10.0 mi NNW 16.1 mph - N/A   Clear
1:55 PM 46.0 °F 38.5 °F 22.8 °F 40% 29.86 in 10.0 mi North 19.6 mph 23.0 mph N/A   Clear
2:15 PM 45.7 °F 39.1 °F 23.0 °F 41% 29.86 in 10.0 mi North 15.0 mph - N/A   Clear
2:35 PM 46.8 °F - 22.5 °F 38% 29.86 in 10.0 mi North 17.3 mph 21.9 mph N/A   Clear
2:55 PM 46.6 °F - 21.2 °F 37% 29.86 in 10.0 mi North 18.4 mph 24.2 mph N/A   Clear
3:15 PM 45.5 °F 38.3 °F 22.3 °F 40% 29.88 in 10.0 mi North 17.3 mph 20.7 mph N/A   Clear
3:35 PM 44.1 °F 37.1 °F 22.8 °F 43% 29.88 in 10.0 mi North 15.0 mph - N/A   Clear
3:55 PM 42.1 °F 33.9 °F 23.9 °F 49% 29.89 in 10.0 mi North 17.3 mph - N/A   Clear
4:15 PM 40.3 °F 33.0 °F 23.9 °F 52% 29.90 in 10.0 mi North 12.7 mph - N/A   Mostly Cloudy
4:35 PM 39.4 °F 31.8 °F 24.3 °F 55% 29.90 in 10.0 mi NNE 12.7 mph - N/A   Overcast
4:55 PM 38.5 °F 32.1 °F 24.3 °F 57% 29.91 in 10.0 mi North 9.2 mph - N/A   Overcast
5:15 PM 37.9 °F 32.1 °F 24.4 °F 58% 29.92 in 10.0 mi North 8.1 mph - N/A   Overcast
5:35 PM 37.0 °F 32.4 °F 24.3 °F 60% 29.93 in 10.0 mi North 5.8 mph - N/A   Mostly Cloudy
6:15 PM 34.7 °F 31.8 °F 23.0 °F 62% 29.95 in 10.0 mi North 3.5 mph - N/A   Clear
6:35 PM 32.0 °F 25.6 °F 21.2 °F 64% 29.94 in 10.0 mi NNE 6.9 mph - N/A   Clear
6:55 PM 31.3 °F 27.9 °F 21.2 °F 66% 29.95 in 10.0 mi ENE 3.5 mph - N/A   Clear
7:15 PM 30.2 °F - 20.5 °F 67% 29.96 in 10.0 mi Calm Calm - N/A   Clear
7:35 PM 29.7 °F - 21.0 °F 70% 29.97 in 10.0 mi Calm Calm - N/A   Clear
7:55 PM 28.4 °F - 20.5 °F 72% 29.97 in 10.0 mi Calm Calm - N/A   Mostly Cloudy
8:15 PM 28.2 °F - 20.8 °F 74% 29.96 in 10.0 mi Calm Calm - N/A   Scattered Clouds
8:55 PM 23.4 °F - 17.6 °F 79% 29.96 in 10.0 mi Calm Calm - N/A   Clear
9:15 PM 22.3 °F - 16.7 °F 79% 29.96 in 10.0 mi Calm Calm - N/A   Clear
9:35 PM 18.7 °F - 14.7 °F 85% 29.96 in 10.0 mi Calm Calm - N/A   Clear
9:55 PM 18.1 °F 12.9 °F 14.0 °F 84% 29.96 in 10.0 mi WSW 3.5 mph - N/A   Clear
10:15 PM 18.7 °F 11.9 °F 14.9 °F 85% 29.95 in 10.0 mi West 4.6 mph - N/A   Clear
10:35 PM 20.3 °F - 16.7 °F 86% 29.96 in 10.0 mi Calm Calm - N/A   Clear
10:55 PM 20.3 °F 13.8 °F 16.2 °F 84% 29.96 in 10.0 mi WSW 4.6 mph - N/A   Clear
11:15 PM 18.3 °F 10.2 °F 14.5 °F 85% 29.96 in 10.0 mi WSW 5.8 mph - N/A   Clear
11:35 PM 20.1 °F 13.6 °F 16.0 °F 84% 29.95 in 10.0 mi West 4.6 mph - N/A   Clear
11:55 PM 17.4 °F - 13.8 °F 86% 29.95 in 10.0 mi Calm Calm - N/A   Clear